EW2328 Weather Reports


time (UTC)temp
C
wind
direction
speed
KPH
gust
KPH
rain 1hr
cm
rain 24hr
cm
rain mn
cm
humidity
%
barometer
mb
20260902212518 35 0.0 3.2 0.00 0.00 0.00 70 1016.7
20260902211539 35 0.0 0.0 0.00 0.00 0.00 68 1016.7
20260902210519 35 0.0 0.0 0.00 0.00 0.00 70 1016.8
20260902205518 35 0.0 0.0 0.00 0.00 0.00 68 1016.9
20260902204519 35 0.0 0.0 0.00 0.00 0.00 69 1017.0
20260902203518 35 0.0 0.0 0.00 0.00 0.00 67 1017.0
20260902202519 35 0.0 0.0 0.00 0.00 0.00 68 1017.2
20260902201520 35 0.0 1.6 0.00 0.00 0.00 69 1017.2
20260902200518 35 0.0 3.2 0.00 0.00 0.00 68 1017.2
20260902195518 35 0.0 3.2 0.00 0.00 0.00 70 1017.3
20260902194518 35 0.0 0.0 0.00 0.00 0.00 69 1017.4
20260902193518 35 0.0 0.0 0.00 0.00 0.00 67 1017.6
20260902192519 35 0.0 0.0 0.00 0.00 0.00 68 1017.8
20260902191539 35 0.0 0.0 0.00 0.00 0.00 67 1017.8
20260902190538 35 0.0 1.6 0.00 0.00 0.00 65 1017.9
20260902185518 35 0.0 0.0 0.00 0.00 0.00 67 1017.9
20260902184518 35 0.0 0.0 0.00 0.00 0.00 65 1017.9
20260902183519 35 0.0 0.0 0.00 0.00 0.00 67 1018.1
20260902182518 36 0.0 0.0 0.00 0.00 0.00 65 1018.1
20260902181518 36 0.0 0.0 0.00 0.00 0.00 66 1018.2
20260902180518 36 0.0 4.8 0.00 0.00 0.00 66 1018.2
20260902175518 36 0.0 1.6 0.00 0.00 0.00 66 1018.3
20260902174539 36 0.0 0.0 0.00 0.00 0.00 67 1018.4
20260902173518 36 0.0 0.0 0.00 0.00 0.00 67 1018.7
20260902172519 36 0.0 3.2 0.00 0.00 0.00 69 1018.8
20260902171518 36 0.0 0.0 0.00 0.00 0.00 70 1018.9
20260902170519 35 0.0 1.6 0.00 0.00 0.00 69 1018.9
20260902165518 35 0.0 1.6 0.00 0.00 0.00 72 1019.1
20260902164519 35 0.0 0.0 0.00 0.00 0.00 73 1019.1
20260902163518 33 0.0 1.6 0.00 0.00 0.00 74 1019.1
20260902162519 34 0.0 0.0 0.00 0.00 0.00 74 1019.2
20260902161559 33 0.0 0.0 0.00 0.00 0.00 75 1019.2
20260902160518 33 0.0 6.4 0.00 0.00 0.00 76 1019.3
20260902155519 33 0.0 3.2 0.00 0.00 0.00 75 1019.2
20260902154519 33 0.0 0.0 0.00 0.00 0.00 76 1019.3
20260902153519 33 0.0 1.6 0.00 0.00 0.00 74 1019.5
20260902152519 33 0.0 0.0 0.00 0.00 0.00 75 1019.6
20260902151519 33 0.0 0.0 0.00 0.00 0.00 76 1019.6
20260902150519 32 0.0 0.0 0.00 0.00 0.00 77 1019.6
20260902145518 32 0.0 0.0 0.00 0.00 0.00 79 1019.7
20260902144519 31 0.0 0.0 0.00 0.00 0.00 79 1019.6
20260902143518 31 0.0 0.0 0.00 0.00 0.00 80 1019.5
20260902142559 31 0.0 0.0 0.00 0.00 0.00 80 1019.5
20260902141518 30 0.0 0.0 0.00 0.00 0.00 81 1019.5
20260902140518 30 0.0 0.0 0.00 0.00 0.00 82 1019.3
20260902135518 29 0.0 0.0 0.00 0.00 0.00 83 1019.5
20260902134518 28 0.0 0.0 0.00 0.00 0.00 83 1019.4
20260902133518 27 0.0 0.0 0.00 0.00 0.00 83 1019.3
20260902132518 27 0.0 0.0 0.00 0.00 0.00 84 1019.3
20260902131518 27 0.0 0.0 0.00 0.00 0.00 84 1019.3
20260902130519 26 0.0 0.0 0.00 0.00 0.00 84 1019.3
20260902125518 26 0.0 0.0 0.00 0.00 0.00 84 1019.2
20260902124519 26 0.0 0.0 0.00 0.00 0.00 85 1019.2
20260902123518 25 0.0 0.0 0.00 0.00 0.00 85 1019.1
20260902122518 25 0.0 0.0 0.00 0.00 0.00 85 1019.0
20260902121518 25 0.0 0.0 0.00 0.00 0.00 86 1019.0
20260902120518 25 0.0 0.0 0.00 0.00 0.00 86 1019.0
20260902115538 24 0.0 0.0 0.00 0.00 0.00 86 1018.7
20260902114518 24 0.0 0.0 0.00 0.00 0.00 87 1018.7
20260902113518 24 0.0 0.0 0.00 0.00 0.00 87 1018.5
20260902112518 24 0.0 0.0 0.00 0.00 0.00 87 1018.4
20260902111518 24 0.0 0.0 0.00 0.00 0.00 87 1018.4
20260902110518 24 0.0 0.0 0.00 0.00 0.00 87 1018.3
20260902105518 24 0.0 0.0 0.00 0.00 0.00 87 1018.4
20260902104538 24 0.0 0.0 0.00 0.00 0.00 87 1018.5
20260902103518 24 0.0 0.0 0.00 0.00 0.00 87 1018.4
20260902102518 24 0.0 0.0 0.00 0.00 0.00 86 1018.4
20260902101518 24 0.0 0.0 0.00 0.00 0.00 86 1018.3
20260902100518 24 0.0 0.0 0.00 0.00 0.00 86 1018.4
20260902095518 24 0.0 0.0 0.00 0.00 0.00 86 1018.2
20260902094518 24 0.0 0.0 0.00 0.00 0.00 86 1018.3
20260902093538 24 0.0 0.0 0.00 0.00 0.00 86 1018.3
20260902092519 24 0.0 0.0 0.00 0.00 0.00 86 1018.3
20260902091518 24 0.0 0.0 0.00 0.00 0.00 86 1018.2
20260902090518 24 0.0 0.0 0.00 0.00 0.00 86 1018.2
20260902085518 24 0.0 0.0 0.00 0.00 0.00 86 1018.1
20260902084518 24 0.0 0.0 0.00 0.00 0.00 86 1018.0
20260902083518 24 0.0 0.0 0.00 0.00 0.00 86 1017.8
20260902082558 24 0.0 0.0 0.00 0.00 0.00 87 1017.8
20260902081518 24 0.0 0.0 0.00 0.00 0.00 87 1017.7
20260902080518 24 0.0 0.0 0.00 0.00 0.00 87 1017.7
20260902075538 24 0.0 0.0 0.00 0.00 0.00 87 1017.7
20260902074518 24 0.0 0.0 0.00 0.00 0.00 87 1017.6
20260902073538 24 0.0 0.0 0.00 0.00 0.00 87 1017.7
20260902072518 24 0.0 0.0 0.00 0.00 0.00 87 1017.7
20260902071518 24 0.0 0.0 0.00 0.00 0.00 87 1017.6
20260902070538 24 0.0 0.0 0.00 0.00 0.00 87 1017.6
20260902065538 24 0.0 0.0 0.00 0.00 0.00 87 1017.6
20260902064518 24 0.0 0.0 0.00 0.00 0.00 87 1017.7
20260902063518 25 0.0 0.0 0.00 0.00 0.00 87 1017.7
20260902062518 25 0.0 0.0 0.00 0.00 0.00 86 1017.7
20260902061539 25 0.0 0.0 0.00 0.00 0.00 86 1017.8
20260902060538 25 0.0 0.0 0.00 0.00 0.00 86 1017.8
20260902055658 25 0.0 0.0 0.00 0.00 0.00 86 1017.7
20260902054519 25 0.0 0.0 0.00 0.00 0.00 86 1017.8
20260902053519 25 0.0 0.0 0.00 0.00 0.00 86 1017.8
20260902052518 25 0.0 0.0 0.00 0.00 0.00 86 1017.8
20260902051518 25 0.0 0.0 0.00 0.00 0.00 86 1017.8
20260902050519 25 0.0 0.0 0.00 0.00 0.00 86 1017.9
20260902045538 25 0.0 0.0 0.00 0.00 0.00 86 1017.8
20260902044518 26 0.0 0.0 0.00 0.00 0.00 86 1017.8
20260902043518 26 0.0 0.0 0.00 0.00 0.00 86 1017.7
20260902042518 26 0.0 0.0 0.00 0.00 0.00 85 1017.8
20260902041518 26 0.0 0.0 0.00 0.00 0.00 85 1017.8
20260902040522 27 0.0 0.0 0.00 0.00 0.00 85 1017.9
20260902035519 27 0.0 0.0 0.00 0.00 0.00 84 1017.9
20260902034519 27 0.0 0.0 0.00 0.00 0.00 84 1017.8
20260902033519 27 0.0 0.0 0.00 0.00 0.00 84 1017.9
20260902032518 27 0.0 0.0 0.00 0.00 0.00 84 1017.8
20260902031519 27 0.0 0.0 0.00 0.00 0.00 83 1017.7
20260902030519 27 0.0 0.0 0.00 0.00 0.00 83 1017.8
20260902025519 27 0.0 0.0 0.00 0.00 0.00 83 1017.7
20260902024518 27 0.0 0.0 0.00 0.00 0.00 83 1017.7
20260902023539 28 0.0 0.0 0.00 0.00 0.00 83 1017.7
20260902022519 28 0.0 0.0 0.00 0.00 0.00 83 1017.8
20260902021519 28 0.0 0.0 0.00 0.00 0.00 82 1017.7
20260902020519 28 0.0 0.0 0.00 0.00 0.00 82 1017.7
20260902015519 28 0.0 0.0 0.00 0.00 0.00 82 1017.6
20260902014519 28 0.0 0.0 0.00 0.00 0.00 81 1017.5
20260902013519 29 0.0 0.0 0.00 0.00 0.00 80 1017.4
20260902012519 29 0.0 0.0 0.00 0.00 0.00 80 1017.4
20260902011519 29 0.0 0.0 0.00 0.00 0.00 80 1017.2
20260902010539 29 0.0 0.0 0.00 0.00 0.00 80 1017.1
20260902005519 29 0.0 0.0 0.00 0.00 0.00 80 1017.0
20260902004519 29 0.0 0.0 0.00 0.00 0.00 80 1017.0
20260902003539 29 0.0 0.0 0.00 0.00 0.00 80 1017.0
20260902002519 29 0.0 0.0 0.00 0.00 0.00 78 1017.0
20260902001519 30 0.0 0.0 0.00 0.00 0.00 77 1016.9
20260902000518 30 0.0 0.0 0.00 0.00 0.00 76 1017.0
20260901235519 31 0.0 0.0 0.00 0.00 0.00 75 1017.1
20260901234538 31 0.0 0.0 0.00 0.00 0.00 74 1017.1
20260901233519 31 0.0 0.0 0.00 0.00 0.00 73 1017.2
20260901232518 32 0.0 0.0 0.00 0.00 0.00 72 1017.3
20260901231519 32 0.0 0.0 0.00 0.00 0.00 70 1017.3
20260901230519 32 0.0 0.0 0.00 0.00 0.00 71 1017.3
20260901225518 32 0.0 0.0 0.00 0.00 0.00 70 1017.3
20260901224518 33 0.0 0.0 0.00 0.00 0.00 69 1017.3
20260901223518 33 0.0 0.0 0.00 0.00 0.00 69 1017.2
20260901222518 33 0.0 0.0 0.00 0.00 0.00 70 1017.1
20260901221519 33 0.0 0.0 0.00 0.00 0.00 69 1017.2
20260901220519 33 0.0 3.2 0.00 0.00 0.00 67 1017.1
20260901215539 33 0.0 0.0 0.00 0.00 0.00 69 1017.1
20260901214518 33 0.0 0.0 0.00 0.00 0.00 69 1017.1
20260901213519 34 0.0 0.0 0.00 0.00 0.00 69 1017.2